Regional Weather Roundup
Issued by NWS

Home | Current Version | Previous Version | Text Only | Print | Product List | Glossary Off
Versions: 1 2 3 4 5 6 7 8 9 10 11 12 13 14 15 16 17 18 19 20 21 22 23 24 25 26 27 28 29 30 31 32 33 34 35 36 37 38 39 40 41 42 43 44 45 46 47 48 49 50

000
ASUS43 KOAX 282002
RWRNE

WEATHER ROUNDUP FOR NEBRASKA
NATIONAL WEATHER SERVICE OMAHA NE
300 PM CDT MON JUL 28 2014

NOTES: SATELLITE DATA IS BEING USED TO AUGMENT CLOUD COVER ABOVE
       12000 FEET.
       "FAIR" INDICATES FEW OR NO CLOUDS BELOW 12,000 FEET WITH NO
       SIGNIFICANT WEATHER AND/OR OBSTRUCTIONS TO VISIBILITY.

  * THESE STATIONS DO NOT REPORT WEATHER SUCH AS RAIN...SNOW OR FOG.

NEZ001>004-019>022-054>056-282100-
NEBRASKA PANHANDLE

CITY           SKY/WX    TMP DP  RH WIND       PRES   REMARKS
SCOTTSBLUFF    SUNNY     85  60  42 E12       30.27F
ALLIANCE       SUNNY     84  57  39 SE8       30.28F
CHADRON        MOSUNNY   85  55  35 SE10      30.25F
KIMBALL        PTSUNNY   86  52  30 S12       30.30F
SIDNEY         MOSUNNY   87  56  34 SE10G18   30.30F
$$

NEZ057>060-069>072-079>082-282100-
SOUTHWEST NEBRASKA

CITY           SKY/WX    TMP DP  RH WIND       PRES   REMARKS
NORTH PLATTE   SUNNY     82  57  42 E8        30.27F
IMPERIAL       SUNNY     87  55  33 SE8G31    30.26F
LEXINGTON      SUNNY     81  57  44 E3        30.28F
MCCOOK         SUNNY     85  57  38 SE8       30.26F
OGALLALA       SUNNY     81  58  46 SE10      30.27F
$$

NEZ005>010-023>029-035>040-094-282100-
NORTH CENTRAL NEBRASKA

CITY           SKY/WX    TMP DP  RH WIND       PRES   REMARKS
VALENTINE      SUNNY     80  53  39 VRB6      30.29F
AINSWORTH      SUNNY     75  53  45 E6        30.30F
BROKEN BOW     PTSUNNY   80  56  43 VRB3      30.29F
O`NEILL        SUNNY     75  48  38 N6        30.29F
ORD            SUNNY     77  53  43 VRB6      30.27F
THEDFORD       MOSUNNY   78  55  44 E5        30.30F
$$

NEZ041-046>049-061>064-073>077-083>087-282100-
SOUTH CENTRAL NEBRASKA

CITY           SKY/WX    TMP DP  RH WIND       PRES   REMARKS
GRAND ISLAND   PTSUNNY   75  55  49 VRB5      30.29F
AURORA         MOSUNNY   76  56  51 N6        30.28F
HASTINGS       MOSUNNY   77  55  46 N8        30.29F
HEBRON         MOSUNNY   77  53  42 N10G16    30.27F
HOLDREGE       SUNNY     77  57  49 CALM      30.29F
KEARNEY *      PTSUNNY   79  57  47 E6        30.29F
YORK           MOSUNNY   75  57  53 N10       30.28F
$$

NEZ011>018-030>034-042>045-282100-
NORTHEAST NEBRASKA

CITY           SKY/WX    TMP DP  RH WIND       PRES   REMARKS
NORFOLK        MOSUNNY   76  52  43 NW9       30.27F
ALBION         MOSUNNY   72  53  51 NW6       30.29F
BLAIR          PTSUNNY   73  55  52 N7        30.24F
COLUMBUS *     CLOUDY    73  54  49 N7        30.28S
FREMONT        MOSUNNY   77  53  42 NW8       30.26F
TEKAMAH        PTSUNNY   78  56  46 NW10      30.24S
WAYNE          PTSUNNY   75  55  49 NW8       30.27S
$$

NEZ050>053-065>068-078-088>093-282100-
SOUTHEAST NEBRASKA

CITY           SKY/WX    TMP DP  RH WIND       PRES   REMARKS
LINCOLN        PTSUNNY   78  53  41 N10       30.26F
OMAHA EPPLEY   MOSUNNY   77  54  44 N9        30.23F
BEATRICE       MOSUNNY   77  58  52 N12G17    30.25F
FALLS CITY     PTSUNNY   79  59  50 N10       30.22F
NEBRASKA CITY  MOSUNNY   75  53  46 NW3       30.25F
PLATTSMOUTH    PTSUNNY   76  51  41 NW5       30.24F
$$

NEZ044-045-051>053-067-282100-
OMAHA AREA

CITY           SKY/WX    TMP DP  RH WIND       PRES   REMARKS
OMAHA EPPLEY   MOSUNNY   77  54  44 N9        30.23F
BLAIR          PTSUNNY   73  55  52 N7        30.24F
FREMONT        MOSUNNY   77  53  42 NW8       30.26F
MILLARD        MOSUNNY   76  55  48 NW7       30.23F
OFFUTT AFB     SUNNY     78  56  46 NW6       30.23F
PLATTSMOUTH    PTSUNNY   76  51  41 NW5       30.24F
WAHOO          FAIR      76  55  47 NW9       30.25F
$$



USA.gov is the U.S. government's official web portal to all federal, state and local government web resources and services.